SL-6 R/B(2) (20666 NORAD) Tracking and Keplerian Element Data

This shows tracking and keplerian element data for the satellite.

Feedback or suggestion? Click here.




ElementValue
Catalog20666
NameSL-6 R/B(2)
Epoch Orbit81963
Epoch Day13.15522837
Epoch Year2024
RAAN36.0757
Inclination62.7846
Eccentricity0.010611
Argument of Perigee127.4528
Mean Anonmoly233.6279
Mean Motion14.96822698
Decay Rate2.927E-05
L11 20666U 90055D 24013.15522837 .00002927 00000+0 24336-3 0 9992
L22 20666 62.7846 36.0757 0106110 127.4528 233.6279 14.96822698819635



Live tracking and technical data element details for SL-6 R/B(2) (NORAD 20666). SL-6 R/B(2) can be tracked NOW for your location showing map with azimuth and elevation plus other details from your city location.







IsCatalogInMostPopularTable: catalog: 20666, numindb: 388
Update: records affected: 1



GetName: 20666 SL-6 R/B(2)

Hit Count: updated at: Mon, 15 Apr 2024 00:02:04 GMT